Multibeam Report for NBP1105


Ship Name: Nathaniel B. Palmer
Chief Scientist: Wilson, Nerida
University of California, San Diego
Source Organization: Marine Geoscience Data System (MGDS)
Start Date: 2011-09-17
End Date: 2011-11-04


View ISO Metadata

Visit the full NCEI Bathymetry Viewer


Multibeam Bathymetry

Cruise Details

Project:
Instrument: Kongsberg EM120

Data Quality

Number of Files: 917
Number of Records: 1985475
BATHYMETRY DATA Quantity Percentage
Number of Beams 379225534 100%
Number of Good Beams 294649165 77.7%
Number of Zero Beams 84576369 22.3%
Number of Flagged Beams 0 0%
AMPLITUDE DATA Quantity Percentage
Number of Beams 379225534 100%
Number of Good Beams 294649165 77.7%
Number of Zero Beams 84576369 22.3%
Number of Flagged Beams 0 0%
SIDESCAN DATA Quantity Percentage
Number of Pixels 2033125376 100%
Number of Good Pixels 834591918 41.05%
Number of Zero Pixels 0 0%
Number of Flagged Pixels 1198533458 58.95%

Navigation Totals

Total Time: 883.0235 hours
Total Track Length: 8352.0491 km
Average Speed: 9.458 km/hr (5.1069 knots)

Cruise Bounds

Northern Extent: -53.29561
Southern Extent: -63.345432
Western Extent: -61.517605
Eastern Extent: -25.909946

Limits

Minimum Sonar Depth 5.01 Maximum Sonar Depth 9.26
Minimum Altitude 0 Maximum Altitude 7285.1201
Minimum Depth 25.29 Maximum Depth 7879.3901
Minimum Amplitude 0 Maximum Amplitude 26
Minimum Sidescan 0 Maximum Sidescan 63

File Information

Full Resolution Bathymetry as collected (raw): 914

Files File Size Description
0001_20110921_002836_raw.all.mb56.gz 10.38MB Simrad multibeam vendor format
0002_20110921_012836_raw.all.mb56.gz 10.27MB Simrad multibeam vendor format
0003_20110921_022836_raw.all.mb56.gz 10.39MB Simrad multibeam vendor format
0004_20110921_032836_raw.all.mb56.gz 11.12MB Simrad multibeam vendor format
0005_20110921_042836_raw.all.mb56.gz 9.84MB Simrad multibeam vendor format
0006_20110921_052836_raw.all.mb56.gz 10.41MB Simrad multibeam vendor format
0007_20110921_062836_raw.all.mb56.gz 10.27MB Simrad multibeam vendor format
0008_20110921_072836_raw.all.mb56.gz 10.09MB Simrad multibeam vendor format
0009_20110921_082836_raw.all.mb56.gz 10.26MB Simrad multibeam vendor format
0010_20110921_092836_raw.all.mb56.gz 9.11MB Simrad multibeam vendor format
0011_20110921_102836_raw.all.mb56.gz 9.24MB Simrad multibeam vendor format
0012_20110921_112836_raw.all.mb56.gz 9.26MB Simrad multibeam vendor format
0013_20110921_122835_raw.all.mb56.gz 9.13MB Simrad multibeam vendor format
0014_20110921_132835_raw.all.mb56.gz 9.32MB Simrad multibeam vendor format
0015_20110921_142835_raw.all.mb56.gz 9.48MB Simrad multibeam vendor format
0016_20110921_152835_raw.all.mb56.gz 10.68MB Simrad multibeam vendor format
0017_20110921_162835_raw.all.mb56.gz 11.29MB Simrad multibeam vendor format
0018_20110921_172835_raw.all.mb56.gz 10.80MB Simrad multibeam vendor format
0019_20110921_182835_raw.all.mb56.gz 11.21MB Simrad multibeam vendor format
0020_20110921_192835_raw.all.mb56.gz 11.41MB Simrad multibeam vendor format
0021_20110921_202835_raw.all.mb56.gz 11.61MB Simrad multibeam vendor format
0022_20110921_212835_raw.all.mb56.gz 11.97MB Simrad multibeam vendor format
0023_20110921_222835_raw.all.mb56.gz 12.59MB Simrad multibeam vendor format
0024_20110921_232835_raw.all.mb56.gz 10.75MB Simrad multibeam vendor format
0025_20110922_002835_raw.all.mb56.gz 10.73MB Simrad multibeam vendor format
0026_20110922_012835_raw.all.mb56.gz 12.13MB Simrad multibeam vendor format
0027_20110922_022835_raw.all.mb56.gz 11.04MB Simrad multibeam vendor format
0028_20110922_032835_raw.all.mb56.gz 12.04MB Simrad multibeam vendor format
0029_20110922_042835_raw.all.mb56.gz 10.78MB Simrad multibeam vendor format
0030_20110922_052835_raw.all.mb56.gz 8.77MB Simrad multibeam vendor format
0031_20110922_062835_raw.all.mb56.gz 8.69MB Simrad multibeam vendor format
0032_20110922_072835_raw.all.mb56.gz 8.73MB Simrad multibeam vendor format
0033_20110922_082835_raw.all.mb56.gz 9.29MB Simrad multibeam vendor format
0034_20110922_092835_raw.all.mb56.gz 9.21MB Simrad multibeam vendor format
0035_20110922_102835_raw.all.mb56.gz 9.74MB Simrad multibeam vendor format
0036_20110922_112835_raw.all.mb56.gz 13.58MB Simrad multibeam vendor format
0037_20110922_122834_raw.all.mb56.gz 25.09MB Simrad multibeam vendor format
0038_20110922_132834_raw.all.mb56.gz 20.90MB Simrad multibeam vendor format
0039_20110922_142835_raw.all.mb56.gz 33.80MB Simrad multibeam vendor format
0040_20110922_152834_raw.all.mb56.gz 24.93MB Simrad multibeam vendor format
0041_20110922_162834_raw.all.mb56.gz 35.83MB Simrad multibeam vendor format
0042_20110922_172834_raw.all.mb56.gz 26.16MB Simrad multibeam vendor format
0043_20110922_182834_raw.all.mb56.gz 31.84MB Simrad multibeam vendor format
0044_20110922_192834_raw.all.mb56.gz 25.09MB Simrad multibeam vendor format
0045_20110922_202834_raw.all.mb56.gz 23.80MB Simrad multibeam vendor format
0046_20110922_212834_raw.all.mb56.gz 24.60MB Simrad multibeam vendor format
0047_20110922_222834_raw.all.mb56.gz 24.59MB Simrad multibeam vendor format
0048_20110922_232834_raw.all.mb56.gz 32.53MB Simrad multibeam vendor format
0049_20110923_002834_raw.all.mb56.gz 33.82MB Simrad multibeam vendor format
0050_20110923_012834_raw.all.mb56.gz 30.85MB Simrad multibeam vendor format
0051_20110923_022834_raw.all.mb56.gz 34.77MB Simrad multibeam vendor format
0052_20110923_032834_raw.all.mb56.gz 29.23MB Simrad multibeam vendor format
0053_20110923_042834_raw.all.mb56.gz 35.66MB Simrad multibeam vendor format
0054_20110923_052834_raw.all.mb56.gz 30.63MB Simrad multibeam vendor format
0055_20110923_062834_raw.all.mb56.gz 25.10MB Simrad multibeam vendor format
0056_20110923_072834_raw.all.mb56.gz 17.10MB Simrad multibeam vendor format
0057_20110923_082834_raw.all.mb56.gz 24.94MB Simrad multibeam vendor format
0058_20110923_092834_raw.all.mb56.gz 30.75MB Simrad multibeam vendor format
0059_20110923_102834_raw.all.mb56.gz 27.95MB Simrad multibeam vendor format
0060_20110923_112834_raw.all.mb56.gz 25.85MB Simrad multibeam vendor format
0061_20110923_122833_raw.all.mb56.gz 30.56MB Simrad multibeam vendor format
0062_20110923_132834_raw.all.mb56.gz 22.20MB Simrad multibeam vendor format
0063_20110923_142834_raw.all.mb56.gz 20.60MB Simrad multibeam vendor format
0064_20110923_152834_raw.all.mb56.gz 30.50MB Simrad multibeam vendor format
0065_20110923_162834_raw.all.mb56.gz 32.87MB Simrad multibeam vendor format
0066_20110923_172834_raw.all.mb56.gz 27.07MB Simrad multibeam vendor format
0067_20110923_182834_raw.all.mb56.gz 18.80MB Simrad multibeam vendor format
0068_20110923_192834_raw.all.mb56.gz 8.00MB Simrad multibeam vendor format
0069_20110923_202833_raw.all.mb56.gz 7.62MB Simrad multibeam vendor format
0070_20110923_212833_raw.all.mb56.gz 7.62MB Simrad multibeam vendor format
0071_20110923_222833_raw.all.mb56.gz 7.61MB Simrad multibeam vendor format
0072_20110923_232833_raw.all.mb56.gz 8.25MB Simrad multibeam vendor format
0073_20110924_002833_raw.all.mb56.gz 21.01MB Simrad multibeam vendor format
0074_20110924_012833_raw.all.mb56.gz 11.56MB Simrad multibeam vendor format
0075_20110924_014402_raw.all.mb56.gz 0.67MB Simrad multibeam vendor format
0076_20110924_014610_raw.all.mb56.gz 35.42MB Simrad multibeam vendor format
0077_20110924_024611_raw.all.mb56.gz 36.96MB Simrad multibeam vendor format
0078_20110924_034611_raw.all.mb56.gz 36.88MB Simrad multibeam vendor format
0079_20110924_044610_raw.all.mb56.gz 31.33MB Simrad multibeam vendor format
0080_20110924_054610_raw.all.mb56.gz 35.99MB Simrad multibeam vendor format
0081_20110924_064610_raw.all.mb56.gz 32.15MB Simrad multibeam vendor format
0082_20110924_074610_raw.all.mb56.gz 32.05MB Simrad multibeam vendor format
0083_20110924_084610_raw.all.mb56.gz 41.26MB Simrad multibeam vendor format
0084_20110924_094610_raw.all.mb56.gz 45.50MB Simrad multibeam vendor format
0085_20110924_104610_raw.all.mb56.gz 43.53MB Simrad multibeam vendor format
0086_20110924_114610_raw.all.mb56.gz 43.58MB Simrad multibeam vendor format
0087_20110924_124610_raw.all.mb56.gz 41.60MB Simrad multibeam vendor format
0088_20110924_134610_raw.all.mb56.gz 37.68MB Simrad multibeam vendor format
0089_20110924_144610_raw.all.mb56.gz 40.35MB Simrad multibeam vendor format
0090_20110924_154610_raw.all.mb56.gz 40.12MB Simrad multibeam vendor format
0091_20110924_164610_raw.all.mb56.gz 38.05MB Simrad multibeam vendor format
0092_20110924_174610_raw.all.mb56.gz 1.10MB Simrad multibeam vendor format
0093_20110924_180836_raw.all.mb56.gz 32.94MB Simrad multibeam vendor format
0094_20110924_190836_raw.all.mb56.gz 32.06MB Simrad multibeam vendor format
0095_20110924_200836_raw.all.mb56.gz 28.55MB Simrad multibeam vendor format
0096_20110924_210836_raw.all.mb56.gz 26.51MB Simrad multibeam vendor format
0097_20110924_220836_raw.all.mb56.gz 26.01MB Simrad multibeam vendor format
0098_20110924_230836_raw.all.mb56.gz 2.20MB Simrad multibeam vendor format
0099_20110924_231625_raw.all.mb56.gz 16.00MB Simrad multibeam vendor format
0100_20110925_001625_raw.all.mb56.gz 14.40MB Simrad multibeam vendor format
0101_20110925_011625_raw.all.mb56.gz 12.23MB Simrad multibeam vendor format
0102_20110925_021625_raw.all.mb56.gz 13.02MB Simrad multibeam vendor format
0103_20110925_031625_raw.all.mb56.gz 12.35MB Simrad multibeam vendor format
0104_20110925_041625_raw.all.mb56.gz 11.91MB Simrad multibeam vendor format
0105_20110925_051625_raw.all.mb56.gz 10.42MB Simrad multibeam vendor format
0106_20110925_061625_raw.all.mb56.gz 11.82MB Simrad multibeam vendor format
0107_20110925_071625_raw.all.mb56.gz 15.19MB Simrad multibeam vendor format
0108_20110925_081625_raw.all.mb56.gz 11.00MB Simrad multibeam vendor format
0109_20110925_091625_raw.all.mb56.gz 12.12MB Simrad multibeam vendor format
0110_20110925_101625_raw.all.mb56.gz 13.35MB Simrad multibeam vendor format
0111_20110925_111625_raw.all.mb56.gz 13.42MB Simrad multibeam vendor format
0112_20110925_121625_raw.all.mb56.gz 11.59MB Simrad multibeam vendor format
0113_20110925_131625_raw.all.mb56.gz 10.49MB Simrad multibeam vendor format
0114_20110925_141632_raw.all.mb56.gz 12.19MB Simrad multibeam vendor format
0115_20110925_151632_raw.all.mb56.gz 18.73MB Simrad multibeam vendor format
0116_20110925_161632_raw.all.mb56.gz 21.22MB Simrad multibeam vendor format
0117_20110925_171632_raw.all.mb56.gz 20.69MB Simrad multibeam vendor format
0118_20110925_181632_raw.all.mb56.gz 23.87MB Simrad multibeam vendor format
0119_20110925_191632_raw.all.mb56.gz 25.41MB Simrad multibeam vendor format
0120_20110925_201632_raw.all.mb56.gz 24.98MB Simrad multibeam vendor format
0121_20110925_211632_raw.all.mb56.gz 16.95MB Simrad multibeam vendor format
0122_20110925_221632_raw.all.mb56.gz 24.10MB Simrad multibeam vendor format
0123_20110925_231632_raw.all.mb56.gz 25.74MB Simrad multibeam vendor format
0124_20110926_001632_raw.all.mb56.gz 15.10MB Simrad multibeam vendor format
0125_20110926_011632_raw.all.mb56.gz 12.25MB Simrad multibeam vendor format
0126_20110926_021632_raw.all.mb56.gz 11.96MB Simrad multibeam vendor format
0127_20110926_031632_raw.all.mb56.gz 14.57MB Simrad multibeam vendor format
0128_20110926_041632_raw.all.mb56.gz 14.78MB Simrad multibeam vendor format
0129_20110926_051632_raw.all.mb56.gz 18.85MB Simrad multibeam vendor format
0130_20110926_061632_raw.all.mb56.gz 19.58MB Simrad multibeam vendor format
0131_20110926_071632_raw.all.mb56.gz 18.69MB Simrad multibeam vendor format
0132_20110926_081632_raw.all.mb56.gz 20.24MB Simrad multibeam vendor format
0133_20110926_091632_raw.all.mb56.gz 24.08MB Simrad multibeam vendor format
0134_20110926_101631_raw.all.mb56.gz 24.37MB Simrad multibeam vendor format
0135_20110926_111631_raw.all.mb56.gz 25.06MB Simrad multibeam vendor format
0136_20110926_121631_raw.all.mb56.gz 24.49MB Simrad multibeam vendor format
0137_20110926_131631_raw.all.mb56.gz 35.18MB Simrad multibeam vendor format
0138_20110926_141631_raw.all.mb56.gz 35.08MB Simrad multibeam vendor format
0139_20110926_151631_raw.all.mb56.gz 35.49MB Simrad multibeam vendor format
0140_20110926_161631_raw.all.mb56.gz 35.77MB Simrad multibeam vendor format
0141_20110926_171631_raw.all.mb56.gz 17.26MB Simrad multibeam vendor format
0142_20110926_174643_raw.all.mb56.gz 33.19MB Simrad multibeam vendor format
0143_20110926_184643_raw.all.mb56.gz 34.51MB Simrad multibeam vendor format
0144_20110926_194643_raw.all.mb56.gz 35.74MB Simrad multibeam vendor format
0145_20110926_204643_raw.all.mb56.gz 30.18MB Simrad multibeam vendor format
0146_20110926_214643_raw.all.mb56.gz 28.96MB Simrad multibeam vendor format
0147_20110926_224643_raw.all.mb56.gz 33.78MB Simrad multibeam vendor format
0148_20110926_234643_raw.all.mb56.gz 29.09MB Simrad multibeam vendor format
0149_20110927_004643_raw.all.mb56.gz 21.44MB Simrad multibeam vendor format
0150_20110927_014643_raw.all.mb56.gz 28.00MB Simrad multibeam vendor format
0151_20110927_024643_raw.all.mb56.gz 24.54MB Simrad multibeam vendor format
0152_20110927_034643_raw.all.mb56.gz 8.98MB Simrad multibeam vendor format
0153_20110927_044643_raw.all.mb56.gz 28.93MB Simrad multibeam vendor format
0154_20110927_054643_raw.all.mb56.gz 30.92MB Simrad multibeam vendor format
0155_20110927_064643_raw.all.mb56.gz 31.46MB Simrad multibeam vendor format
0156_20110927_074643_raw.all.mb56.gz 32.41MB Simrad multibeam vendor format
0157_20110927_084643_raw.all.mb56.gz 29.83MB Simrad multibeam vendor format
0158_20110927_094643_raw.all.mb56.gz 24.09MB Simrad multibeam vendor format
0159_20110928_002049_raw.all.mb56.gz 24.96MB Simrad multibeam vendor format
0160_20110928_012049_raw.all.mb56.gz 19.42MB Simrad multibeam vendor format
0161_20110928_022049_raw.all.mb56.gz 12.68MB Simrad multibeam vendor format
0162_20110928_032049_raw.all.mb56.gz 32.59MB Simrad multibeam vendor format
0163_20110928_042049_raw.all.mb56.gz 27.01MB Simrad multibeam vendor format
0164_20110928_052049_raw.all.mb56.gz 20.12MB Simrad multibeam vendor format
0165_20110928_062049_raw.all.mb56.gz 25.94MB Simrad multibeam vendor format
0166_20110928_072049_raw.all.mb56.gz 21.51MB Simrad multibeam vendor format
0167_20110928_082049_raw.all.mb56.gz 27.06MB Simrad multibeam vendor format
0168_20110928_092049_raw.all.mb56.gz 30.25MB Simrad multibeam vendor format
0169_20110928_102049_raw.all.mb56.gz 28.50MB Simrad multibeam vendor format
0170_20110928_112049_raw.all.mb56.gz 14.46MB Simrad multibeam vendor format
0171_20110928_122049_raw.all.mb56.gz 13.11MB Simrad multibeam vendor format
0172_20110928_132049_raw.all.mb56.gz 9.68MB Simrad multibeam vendor format
0173_20110928_142049_raw.all.mb56.gz 9.11MB Simrad multibeam vendor format
0174_20110928_152049_raw.all.mb56.gz 8.84MB Simrad multibeam vendor format
0175_20110928_162049_raw.all.mb56.gz 8.71MB Simrad multibeam vendor format
0176_20110928_172049_raw.all.mb56.gz 9.15MB Simrad multibeam vendor format
0177_20110928_182049_raw.all.mb56.gz 8.92MB Simrad multibeam vendor format
0178_20110928_192049_raw.all.mb56.gz 10.60MB Simrad multibeam vendor format
0179_20110928_202049_raw.all.mb56.gz 10.72MB Simrad multibeam vendor format
0180_20110928_212048_raw.all.mb56.gz 14.37MB Simrad multibeam vendor format
0181_20110928_222048_raw.all.mb56.gz 24.94MB Simrad multibeam vendor format
0182_20110928_232048_raw.all.mb56.gz 32.47MB Simrad multibeam vendor format
0183_20110929_002048_raw.all.mb56.gz 34.05MB Simrad multibeam vendor format
0184_20110929_012048_raw.all.mb56.gz 29.02MB Simrad multibeam vendor format
0185_20110929_022048_raw.all.mb56.gz 32.68MB Simrad multibeam vendor format
0186_20110929_032048_raw.all.mb56.gz 30.84MB Simrad multibeam vendor format
0187_20110929_042048_raw.all.mb56.gz 34.36MB Simrad multibeam vendor format
0188_20110929_052048_raw.all.mb56.gz 32.31MB Simrad multibeam vendor format
0189_20110929_062048_raw.all.mb56.gz 31.30MB Simrad multibeam vendor format
0190_20110929_072048_raw.all.mb56.gz 34.31MB Simrad multibeam vendor format
0191_20110929_082048_raw.all.mb56.gz 31.78MB Simrad multibeam vendor format
0192_20110929_092048_raw.all.mb56.gz 37.31MB Simrad multibeam vendor format
0193_20110929_102048_raw.all.mb56.gz 37.74MB Simrad multibeam vendor format
0194_20110929_112048_raw.all.mb56.gz 29.27MB Simrad multibeam vendor format
0195_20110929_122048_raw.all.mb56.gz 24.84MB Simrad multibeam vendor format
0196_20110929_132048_raw.all.mb56.gz 31.28MB Simrad multibeam vendor format
0197_20110929_142048_raw.all.mb56.gz 38.94MB Simrad multibeam vendor format
0198_20110929_152048_raw.all.mb56.gz 25.82MB Simrad multibeam vendor format
0199_20110929_162048_raw.all.mb56.gz 23.60MB Simrad multibeam vendor format
0200_20110929_172048_raw.all.mb56.gz 20.65MB Simrad multibeam vendor format
0201_20110929_182048_raw.all.mb56.gz 13.09MB Simrad multibeam vendor format
0202_20110929_192048_raw.all.mb56.gz 13.26MB Simrad multibeam vendor format
0203_20110929_202048_raw.all.mb56.gz 13.17MB Simrad multibeam vendor format
0204_20110929_212048_raw.all.mb56.gz 9.70MB Simrad multibeam vendor format
0205_20110929_222047_raw.all.mb56.gz 8.98MB Simrad multibeam vendor format
0206_20110929_232047_raw.all.mb56.gz 9.06MB Simrad multibeam vendor format
0207_20110930_002047_raw.all.mb56.gz 8.90MB Simrad multibeam vendor format
0208_20110930_012047_raw.all.mb56.gz 8.85MB Simrad multibeam vendor format
0209_20110930_022047_raw.all.mb56.gz 8.84MB Simrad multibeam vendor format
0210_20110930_032047_raw.all.mb56.gz 9.00MB Simrad multibeam vendor format
0211_20110930_042047_raw.all.mb56.gz 8.71MB Simrad multibeam vendor format
0212_20110930_052047_raw.all.mb56.gz 8.57MB Simrad multibeam vendor format
0213_20110930_062047_raw.all.mb56.gz 8.47MB Simrad multibeam vendor format
0214_20110930_072047_raw.all.mb56.gz 8.55MB Simrad multibeam vendor format
0215_20110930_082047_raw.all.mb56.gz 8.34MB Simrad multibeam vendor format
0216_20110930_092047_raw.all.mb56.gz 8.45MB Simrad multibeam vendor format
0217_20110930_102047_raw.all.mb56.gz 8.75MB Simrad multibeam vendor format
0218_20110930_112047_raw.all.mb56.gz 8.76MB Simrad multibeam vendor format
0219_20110930_122047_raw.all.mb56.gz 8.83MB Simrad multibeam vendor format
0220_20110930_132047_raw.all.mb56.gz 8.73MB Simrad multibeam vendor format
0221_20110930_142047_raw.all.mb56.gz 8.62MB Simrad multibeam vendor format
0222_20110930_152047_raw.all.mb56.gz 8.64MB Simrad multibeam vendor format
0223_20110930_162047_raw.all.mb56.gz 8.51MB Simrad multibeam vendor format
0224_20110930_172047_raw.all.mb56.gz 8.56MB Simrad multibeam vendor format
0225_20110930_182047_raw.all.mb56.gz 8.28MB Simrad multibeam vendor format
0226_20110930_192047_raw.all.mb56.gz 8.40MB Simrad multibeam vendor format
0227_20110930_202047_raw.all.mb56.gz 8.90MB Simrad multibeam vendor format
0228_20110930_212047_raw.all.mb56.gz 8.63MB Simrad multibeam vendor format
0229_20110930_222047_raw.all.mb56.gz 8.39MB Simrad multibeam vendor format
0230_20110930_232047_raw.all.mb56.gz 9.00MB Simrad multibeam vendor format
0231_20111001_002047_raw.all.mb56.gz 9.99MB Simrad multibeam vendor format
0232_20111001_012047_raw.all.mb56.gz 27.86MB Simrad multibeam vendor format
0233_20111001_022047_raw.all.mb56.gz 28.76MB Simrad multibeam vendor format
0234_20111001_032047_raw.all.mb56.gz 5.89MB Simrad multibeam vendor format
0235_20111001_034658_raw.all.mb56.gz 1.85MB Simrad multibeam vendor format
0236_20111001_043256_raw.all.mb56.gz 10.23MB Simrad multibeam vendor format
0237_20111001_053256_raw.all.mb56.gz 9.79MB Simrad multibeam vendor format
0238_20111001_063256_raw.all.mb56.gz 8.89MB Simrad multibeam vendor format
0239_20111001_073256_raw.all.mb56.gz 8.30MB Simrad multibeam vendor format
0240_20111001_083256_raw.all.mb56.gz 8.00MB Simrad multibeam vendor format
0241_20111001_093256_raw.all.mb56.gz 8.04MB Simrad multibeam vendor format
0242_20111001_103256_raw.all.mb56.gz 8.11MB Simrad multibeam vendor format
0243_20111001_113256_raw.all.mb56.gz 8.15MB Simrad multibeam vendor format
0244_20111001_123256_raw.all.mb56.gz 8.96MB Simrad multibeam vendor format
0245_20111001_133256_raw.all.mb56.gz 9.29MB Simrad multibeam vendor format
0246_20111001_143256_raw.all.mb56.gz 8.97MB Simrad multibeam vendor format
0247_20111001_153256_raw.all.mb56.gz 9.86MB Simrad multibeam vendor format
0248_20111001_163256_raw.all.mb56.gz 9.66MB Simrad multibeam vendor format
0249_20111001_173256_raw.all.mb56.gz 8.27MB Simrad multibeam vendor format
0250_20111001_183256_raw.all.mb56.gz 8.37MB Simrad multibeam vendor format
0251_20111001_193256_raw.all.mb56.gz 9.18MB Simrad multibeam vendor format
0252_20111001_203256_raw.all.mb56.gz 10.48MB Simrad multibeam vendor format
0253_20111001_213256_raw.all.mb56.gz 10.34MB Simrad multibeam vendor format
0254_20111001_223256_raw.all.mb56.gz 10.30MB Simrad multibeam vendor format
0255_20111001_233256_raw.all.mb56.gz 10.14MB Simrad multibeam vendor format
0256_20111002_003256_raw.all.mb56.gz 10.07MB Simrad multibeam vendor format
0257_20111002_013255_raw.all.mb56.gz 10.03MB Simrad multibeam vendor format
0258_20111002_023255_raw.all.mb56.gz 10.35MB Simrad multibeam vendor format
0259_20111002_033255_raw.all.mb56.gz 10.53MB Simrad multibeam vendor format
0260_20111002_043255_raw.all.mb56.gz 10.45MB Simrad multibeam vendor format
0261_20111002_053255_raw.all.mb56.gz 10.71MB Simrad multibeam vendor format
0262_20111002_063255_raw.all.mb56.gz 10.89MB Simrad multibeam vendor format
0263_20111002_073255_raw.all.mb56.gz 10.88MB Simrad multibeam vendor format
0264_20111002_083255_raw.all.mb56.gz 11.10MB Simrad multibeam vendor format
0265_20111002_093255_raw.all.mb56.gz 11.10MB Simrad multibeam vendor format
0266_20111002_103255_raw.all.mb56.gz 10.75MB Simrad multibeam vendor format
0267_20111002_113255_raw.all.mb56.gz 10.74MB Simrad multibeam vendor format
0268_20111002_123255_raw.all.mb56.gz 10.57MB Simrad multibeam vendor format
0269_20111002_133302_raw.all.mb56.gz 10.66MB Simrad multibeam vendor format
0270_20111002_143301_raw.all.mb56.gz 10.28MB Simrad multibeam vendor format
0271_20111002_153301_raw.all.mb56.gz 10.17MB Simrad multibeam vendor format
0272_20111002_163301_raw.all.mb56.gz 10.29MB Simrad multibeam vendor format
0273_20111002_173301_raw.all.mb56.gz 10.71MB Simrad multibeam vendor format
0274_20111002_183301_raw.all.mb56.gz 10.73MB Simrad multibeam vendor format
0275_20111002_193301_raw.all.mb56.gz 5.53MB Simrad multibeam vendor format
0276_20111002_200346_raw.all.mb56.gz 10.66MB Simrad multibeam vendor format
0277_20111002_210346_raw.all.mb56.gz 10.72MB Simrad multibeam vendor format
0278_20111002_220346_raw.all.mb56.gz 10.15MB Simrad multibeam vendor format
0279_20111002_230346_raw.all.mb56.gz 10.17MB Simrad multibeam vendor format
0280_20111003_000346_raw.all.mb56.gz 10.79MB Simrad multibeam vendor format
0281_20111003_010346_raw.all.mb56.gz 10.71MB Simrad multibeam vendor format
0282_20111003_020346_raw.all.mb56.gz 10.78MB Simrad multibeam vendor format
0283_20111003_030346_raw.all.mb56.gz 11.54MB Simrad multibeam vendor format
0284_20111003_040346_raw.all.mb56.gz 16.09MB Simrad multibeam vendor format
0285_20111003_050346_raw.all.mb56.gz 27.61MB Simrad multibeam vendor format
0286_20111003_060346_raw.all.mb56.gz 40.52MB Simrad multibeam vendor format
0287_20111003_070346_raw.all.mb56.gz 37.76MB Simrad multibeam vendor format
0288_20111003_080346_raw.all.mb56.gz 36.22MB Simrad multibeam vendor format
0289_20111003_090346_raw.all.mb56.gz 29.48MB Simrad multibeam vendor format
0290_20111003_100346_raw.all.mb56.gz 36.39MB Simrad multibeam vendor format
0291_20111003_110346_raw.all.mb56.gz 27.75MB Simrad multibeam vendor format
0292_20111003_120346_raw.all.mb56.gz 38.71MB Simrad multibeam vendor format
0293_20111003_130346_raw.all.mb56.gz 33.78MB Simrad multibeam vendor format
0294_20111003_140346_raw.all.mb56.gz 23.12MB Simrad multibeam vendor format
0295_20111003_150346_raw.all.mb56.gz 29.84MB Simrad multibeam vendor format
0296_20111003_160346_raw.all.mb56.gz 29.95MB Simrad multibeam vendor format
0297_20111003_170346_raw.all.mb56.gz 26.39MB Simrad multibeam vendor format
0298_20111003_180346_raw.all.mb56.gz 34.35MB Simrad multibeam vendor format
0299_20111003_190345_raw.all.mb56.gz 19.19MB Simrad multibeam vendor format
0300_20111003_200345_raw.all.mb56.gz 11.61MB Simrad multibeam vendor format
0301_20111003_210345_raw.all.mb56.gz 24.21MB Simrad multibeam vendor format
0302_20111003_220345_raw.all.mb56.gz 30.09MB Simrad multibeam vendor format
0303_20111003_230345_raw.all.mb56.gz 27.45MB Simrad multibeam vendor format
0304_20111004_000345_raw.all.mb56.gz 25.96MB Simrad multibeam vendor format
0305_20111004_010345_raw.all.mb56.gz 31.54MB Simrad multibeam vendor format
0306_20111004_020345_raw.all.mb56.gz 25.16MB Simrad multibeam vendor format
0307_20111004_030345_raw.all.mb56.gz 23.86MB Simrad multibeam vendor format
0308_20111004_040345_raw.all.mb56.gz 21.56MB Simrad multibeam vendor format
0309_20111004_045250_raw.all.mb56.gz 22.00MB Simrad multibeam vendor format
0310_20111004_055250_raw.all.mb56.gz 23.84MB Simrad multibeam vendor format
0311_20111004_065250_raw.all.mb56.gz 24.14MB Simrad multibeam vendor format
0312_20111004_075250_raw.all.mb56.gz 27.03MB Simrad multibeam vendor format
0313_20111004_085250_raw.all.mb56.gz 22.55MB Simrad multibeam vendor format
0314_20111004_095250_raw.all.mb56.gz 25.09MB Simrad multibeam vendor format
0315_20111004_105250_raw.all.mb56.gz 25.35MB Simrad multibeam vendor format
0316_20111004_115250_raw.all.mb56.gz 23.89MB Simrad multibeam vendor format
0317_20111004_125250_raw.all.mb56.gz 25.27MB Simrad multibeam vendor format
0318_20111004_135250_raw.all.mb56.gz 17.79MB Simrad multibeam vendor format
0319_20111004_145250_raw.all.mb56.gz 16.16MB Simrad multibeam vendor format
0320_20111004_155250_raw.all.mb56.gz 14.02MB Simrad multibeam vendor format
0321_20111004_165250_raw.all.mb56.gz 14.34MB Simrad multibeam vendor format
0322_20111004_175250_raw.all.mb56.gz 20.16MB Simrad multibeam vendor format
0323_20111004_185250_raw.all.mb56.gz 39.57MB Simrad multibeam vendor format
0324_20111004_195250_raw.all.mb56.gz 37.38MB Simrad multibeam vendor format
0325_20111004_205250_raw.all.mb56.gz 43.22MB Simrad multibeam vendor format
0326_20111004_215250_raw.all.mb56.gz 19.61MB Simrad multibeam vendor format
0327_20111004_225250_raw.all.mb56.gz 12.58MB Simrad multibeam vendor format
0328_20111004_235250_raw.all.mb56.gz 11.23MB Simrad multibeam vendor format
0329_20111005_005250_raw.all.mb56.gz 9.88MB Simrad multibeam vendor format
0330_20111005_015250_raw.all.mb56.gz 9.21MB Simrad multibeam vendor format
0331_20111005_025249_raw.all.mb56.gz 8.27MB Simrad multibeam vendor format
0332_20111005_035249_raw.all.mb56.gz 11.92MB Simrad multibeam vendor format
0333_20111005_045249_raw.all.mb56.gz 11.81MB Simrad multibeam vendor format
0334_20111005_055249_raw.all.mb56.gz 10.34MB Simrad multibeam vendor format
0335_20111005_065249_raw.all.mb56.gz 8.60MB Simrad multibeam vendor format
0336_20111005_075249_raw.all.mb56.gz 9.24MB Simrad multibeam vendor format
0337_20111005_085249_raw.all.mb56.gz 9.25MB Simrad multibeam vendor format
0338_20111005_095249_raw.all.mb56.gz 9.38MB Simrad multibeam vendor format
0339_20111005_105249_raw.all.mb56.gz 10.93MB Simrad multibeam vendor format
0340_20111005_115249_raw.all.mb56.gz 4.21MB Simrad multibeam vendor format
0340_20111005_121335_raw.all.mb56.gz 13.62MB Simrad multibeam vendor format
0341_20111005_131335_raw.all.mb56.gz 1.68MB Simrad multibeam vendor format
0342_20111005_133136_raw.all.mb56.gz 30.74MB Simrad multibeam vendor format
0343_20111005_143136_raw.all.mb56.gz 34.35MB Simrad multibeam vendor format
0344_20111005_153136_raw.all.mb56.gz 31.46MB Simrad multibeam vendor format
0345_20111005_163136_raw.all.mb56.gz 28.49MB Simrad multibeam vendor format
0346_20111005_173136_raw.all.mb56.gz 35.77MB Simrad multibeam vendor format
0347_20111005_183136_raw.all.mb56.gz 24.38MB Simrad multibeam vendor format
0348_20111005_193136_raw.all.mb56.gz 14.84MB Simrad multibeam vendor format
0349_20111005_203136_raw.all.mb56.gz 20.99MB Simrad multibeam vendor format
0350_20111005_213136_raw.all.mb56.gz 26.03MB Simrad multibeam vendor format
0351_20111005_223136_raw.all.mb56.gz 19.36MB Simrad multibeam vendor format
0352_20111005_233136_raw.all.mb56.gz 17.97MB Simrad multibeam vendor format
0353_20111006_003136_raw.all.mb56.gz 14.14MB Simrad multibeam vendor format
0354_20111006_013136_raw.all.mb56.gz 11.22MB Simrad multibeam vendor format
0355_20111006_023136_raw.all.mb56.gz 11.66MB Simrad multibeam vendor format
0356_20111006_033136_raw.all.mb56.gz 12.19MB Simrad multibeam vendor format
0357_20111006_043135_raw.all.mb56.gz 12.68MB Simrad multibeam vendor format
0358_20111006_053135_raw.all.mb56.gz 13.65MB Simrad multibeam vendor format
0359_20111006_063135_raw.all.mb56.gz 14.15MB Simrad multibeam vendor format
0360_20111006_073135_raw.all.mb56.gz 14.52MB Simrad multibeam vendor format
0361_20111006_083135_raw.all.mb56.gz 17.65MB Simrad multibeam vendor format
0362_20111006_093135_raw.all.mb56.gz 41.07MB Simrad multibeam vendor format
0363_20111006_103135_raw.all.mb56.gz 27.95MB Simrad multibeam vendor format
0364_20111006_113135_raw.all.mb56.gz 18.22MB Simrad multibeam vendor format
0365_20111006_123135_raw.all.mb56.gz 24.12MB Simrad multibeam vendor format
0366_20111006_133135_raw.all.mb56.gz 27.96MB Simrad multibeam vendor format
0367_20111006_143135_raw.all.mb56.gz 10.43MB Simrad multibeam vendor format
0367_20111006_153409_raw.all.mb56.gz 16.57MB Simrad multibeam vendor format
0368_20111006_163409_raw.all.mb56.gz 16.29MB Simrad multibeam vendor format
0369_20111006_173409_raw.all.mb56.gz 17.14MB Simrad multibeam vendor format
0370_20111006_183409_raw.all.mb56.gz 12.29MB Simrad multibeam vendor format
0371_20111006_193409_raw.all.mb56.gz 10.06MB Simrad multibeam vendor format
0372_20111006_203409_raw.all.mb56.gz 9.88MB Simrad multibeam vendor format
0373_20111006_213409_raw.all.mb56.gz 9.52MB Simrad multibeam vendor format
0374_20111006_223409_raw.all.mb56.gz 8.42MB Simrad multibeam vendor format
0375_20111006_233409_raw.all.mb56.gz 8.30MB Simrad multibeam vendor format
0376_20111007_003409_raw.all.mb56.gz 8.80MB Simrad multibeam vendor format
0377_20111007_013409_raw.all.mb56.gz 9.63MB Simrad multibeam vendor format
0378_20111007_023409_raw.all.mb56.gz 9.44MB Simrad multibeam vendor format
0379_20111007_033409_raw.all.mb56.gz 8.07MB Simrad multibeam vendor format
0380_20111007_043409_raw.all.mb56.gz 10.27MB Simrad multibeam vendor format
0381_20111007_053409_raw.all.mb56.gz 8.13MB Simrad multibeam vendor format
0382_20111007_063409_raw.all.mb56.gz 9.82MB Simrad multibeam vendor format
0383_20111007_073409_raw.all.mb56.gz 10.51MB Simrad multibeam vendor format
0384_20111007_083409_raw.all.mb56.gz 9.40MB Simrad multibeam vendor format
0385_20111007_093409_raw.all.mb56.gz 9.48MB Simrad multibeam vendor format
0386_20111007_103409_raw.all.mb56.gz 8.04MB Simrad multibeam vendor format
0387_20111007_113408_raw.all.mb56.gz 8.01MB Simrad multibeam vendor format
0388_20111007_123408_raw.all.mb56.gz 6.91MB Simrad multibeam vendor format
0389_20111007_133408_raw.all.mb56.gz 14.79MB Simrad multibeam vendor format
0390_20111007_143408_raw.all.mb56.gz 17.56MB Simrad multibeam vendor format
0391_20111007_153408_raw.all.mb56.gz 18.95MB Simrad multibeam vendor format
0392_20111007_163408_raw.all.mb56.gz 29.35MB Simrad multibeam vendor format
0393_20111007_173408_raw.all.mb56.gz 23.94MB Simrad multibeam vendor format
0394_20111007_183408_raw.all.mb56.gz 24.10MB Simrad multibeam vendor format
0395_20111007_193408_raw.all.mb56.gz 425.9KB Simrad multibeam vendor format
0396_20111007_193905_raw.all.mb56.gz 25.58MB Simrad multibeam vendor format
0397_20111007_203905_raw.all.mb56.gz 26.70MB Simrad multibeam vendor format
0398_20111007_213905_raw.all.mb56.gz 17.61MB Simrad multibeam vendor format
0399_20111007_223905_raw.all.mb56.gz 15.48MB Simrad multibeam vendor format
0400_20111007_233905_raw.all.mb56.gz 13.61MB Simrad multibeam vendor format
0401_20111008_003905_raw.all.mb56.gz 16.03MB Simrad multibeam vendor format
0402_20111008_013906_raw.all.mb56.gz 20.97MB Simrad multibeam vendor format
0403_20111008_023905_raw.all.mb56.gz 14.17MB Simrad multibeam vendor format
0404_20111008_033905_raw.all.mb56.gz 12.99MB Simrad multibeam vendor format
0405_20111008_043905_raw.all.mb56.gz 12.69MB Simrad multibeam vendor format
0406_20111008_053905_raw.all.mb56.gz 12.43MB Simrad multibeam vendor format
0407_20111008_063905_raw.all.mb56.gz 12.95MB Simrad multibeam vendor format
0408_20111008_073905_raw.all.mb56.gz 13.54MB Simrad multibeam vendor format
0409_20111008_083905_raw.all.mb56.gz 16.09MB Simrad multibeam vendor format
0410_20111008_093905_raw.all.mb56.gz 16.58MB Simrad multibeam vendor format
0411_20111008_103905_raw.all.mb56.gz 15.35MB Simrad multibeam vendor format
0412_20111008_113905_raw.all.mb56.gz 27.40MB Simrad multibeam vendor format
0413_20111008_123905_raw.all.mb56.gz 28.23MB Simrad multibeam vendor format
0414_20111008_133905_raw.all.mb56.gz 20.75MB Simrad multibeam vendor format
0415_20111008_143905_raw.all.mb56.gz 24.64MB Simrad multibeam vendor format
0416_20111008_153905_raw.all.mb56.gz 21.01MB Simrad multibeam vendor format
0417_20111008_163905_raw.all.mb56.gz 14.19MB Simrad multibeam vendor format
0418_20111008_173905_raw.all.mb56.gz 12.75MB Simrad multibeam vendor format
0419_20111008_183905_raw.all.mb56.gz 10.91MB Simrad multibeam vendor format
0420_20111008_193905_raw.all.mb56.gz 23.03MB Simrad multibeam vendor format
0421_20111008_203904_raw.all.mb56.gz 22.09MB Simrad multibeam vendor format
0422_20111008_213904_raw.all.mb56.gz 17.00MB Simrad multibeam vendor format
0423_20111008_223904_raw.all.mb56.gz 17.91MB Simrad multibeam vendor format
0424_20111008_233904_raw.all.mb56.gz 4.34MB Simrad multibeam vendor format
0425_20111010_113017_raw.all.mb56.gz 17.19MB Simrad multibeam vendor format
0426_20111010_123017_raw.all.mb56.gz 18.20MB Simrad multibeam vendor format
0427_20111010_133017_raw.all.mb56.gz 17.38MB Simrad multibeam vendor format
0428_20111010_143017_raw.all.mb56.gz 13.05MB Simrad multibeam vendor format
0429_20111010_153017_raw.all.mb56.gz 17.21MB Simrad multibeam vendor format
0430_20111010_163017_raw.all.mb56.gz 19.15MB Simrad multibeam vendor format
0431_20111010_173017_raw.all.mb56.gz 21.22MB Simrad multibeam vendor format
0432_20111010_183017_raw.all.mb56.gz 18.45MB Simrad multibeam vendor format
0433_20111010_193017_raw.all.mb56.gz 18.15MB Simrad multibeam vendor format
0434_20111010_203017_raw.all.mb56.gz 18.11MB Simrad multibeam vendor format
0435_20111010_213017_raw.all.mb56.gz 18.25MB Simrad multibeam vendor format
0436_20111010_223017_raw.all.mb56.gz 12.99MB Simrad multibeam vendor format
0437_20111010_233017_raw.all.mb56.gz 18.23MB Simrad multibeam vendor format
0438_20111011_003017_raw.all.mb56.gz 19.41MB Simrad multibeam vendor format
0439_20111011_013017_raw.all.mb56.gz 17.47MB Simrad multibeam vendor format
0440_20111011_023017_raw.all.mb56.gz 4.71MB Simrad multibeam vendor format
0441_20111011_024740_raw.all.mb56.gz 18.42MB Simrad multibeam vendor format
0442_20111011_034740_raw.all.mb56.gz 17.93MB Simrad multibeam vendor format
0443_20111011_044740_raw.all.mb56.gz 17.72MB Simrad multibeam vendor format
0444_20111011_054740_raw.all.mb56.gz 17.13MB Simrad multibeam vendor format
0445_20111011_071501_raw.all.mb56.gz 18.80MB Simrad multibeam vendor format
0446_20111011_081501_raw.all.mb56.gz 6.67MB Simrad multibeam vendor format
0447_20111011_101306_raw.all.mb56.gz 15.74MB Simrad multibeam vendor format
0448_20111011_114219_raw.all.mb56.gz 16.89MB Simrad multibeam vendor format
0449_20111011_124219_raw.all.mb56.gz 15.38MB Simrad multibeam vendor format
0450_20111011_134219_raw.all.mb56.gz 5.91MB Simrad multibeam vendor format
0451_20111011_151856_raw.all.mb56.gz 129.5KB Simrad multibeam vendor format
0452_20111011_214946_raw.all.mb56.gz 15.48MB Simrad multibeam vendor format
0453_20111011_224946_raw.all.mb56.gz 14.28MB Simrad multibeam vendor format
0454_20111011_234946_raw.all.mb56.gz 13.67MB Simrad multibeam vendor format
0455_20111012_004946_raw.all.mb56.gz 13.57MB Simrad multibeam vendor format
0456_20111012_014946_raw.all.mb56.gz 9.51MB Simrad multibeam vendor format
0457_20111012_024526_raw.all.mb56.gz 17.77MB Simrad multibeam vendor format
0458_20111012_034526_raw.all.mb56.gz 6.94MB Simrad multibeam vendor format
0459_20111012_040910_raw.all.mb56.gz 9.06MB Simrad multibeam vendor format
0460_20111012_045148_raw.all.mb56.gz 15.97MB Simrad multibeam vendor format
0461_20111012_055148_raw.all.mb56.gz 12.49MB Simrad multibeam vendor format
0462_20111012_065148_raw.all.mb56.gz 3.98MB Simrad multibeam vendor format
0463_20111012_072848_raw.all.mb56.gz 13.64MB Simrad multibeam vendor format
0464_20111012_091713_raw.all.mb56.gz 10.40MB Simrad multibeam vendor format
0465_20111012_101713_raw.all.mb56.gz 11.27MB Simrad multibeam vendor format
0466_20111012_111713_raw.all.mb56.gz 11.71MB Simrad multibeam vendor format
0467_20111012_121713_raw.all.mb56.gz 11.41MB Simrad multibeam vendor format
0468_20111012_131713_raw.all.mb56.gz 11.68MB Simrad multibeam vendor format
0469_20111012_141713_raw.all.mb56.gz 11.36MB Simrad multibeam vendor format
0470_20111012_151713_raw.all.mb56.gz 12.79MB Simrad multibeam vendor format
0471_20111012_161713_raw.all.mb56.gz 18.61MB Simrad multibeam vendor format
0472_20111012_171713_raw.all.mb56.gz 19.34MB Simrad multibeam vendor format
0473_20111012_181713_raw.all.mb56.gz 18.78MB Simrad multibeam vendor format
0474_20111012_191713_raw.all.mb56.gz 13.23MB Simrad multibeam vendor format
0475_20111012_201713_raw.all.mb56.gz 16.11MB Simrad multibeam vendor format
0476_20111012_211712_raw.all.mb56.gz 17.83MB Simrad multibeam vendor format
0477_20111012_221712_raw.all.mb56.gz 18.32MB Simrad multibeam vendor format
0478_20111012_231712_raw.all.mb56.gz 18.47MB Simrad multibeam vendor format
0479_20111013_001712_raw.all.mb56.gz 11.78MB Simrad multibeam vendor format
0480_20111013_021118_raw.all.mb56.gz 15.43MB Simrad multibeam vendor format
0481_20111013_031118_raw.all.mb56.gz 15.25MB Simrad multibeam vendor format
0482_20111013_041118_raw.all.mb56.gz 12.34MB Simrad multibeam vendor format
0483_20111013_051118_raw.all.mb56.gz 9.75MB Simrad multibeam vendor format
0484_20111013_061118_raw.all.mb56.gz 8.88MB Simrad multibeam vendor format
0485_20111013_071118_raw.all.mb56.gz 8.65MB Simrad multibeam vendor format
0486_20111013_081118_raw.all.mb56.gz 8.79MB Simrad multibeam vendor format
0487_20111013_091118_raw.all.mb56.gz 8.69MB Simrad multibeam vendor format
0488_20111013_101118_raw.all.mb56.gz 8.75MB Simrad multibeam vendor format
0489_20111013_111118_raw.all.mb56.gz 9.31MB Simrad multibeam vendor format
0490_20111013_121118_raw.all.mb56.gz 9.03MB Simrad multibeam vendor format
0491_20111013_131118_raw.all.mb56.gz 8.91MB Simrad multibeam vendor format
0492_20111013_141118_raw.all.mb56.gz 12.62MB Simrad multibeam vendor format
0493_20111013_151118_raw.all.mb56.gz 10.75MB Simrad multibeam vendor format
0494_20111013_161118_raw.all.mb56.gz 12.91MB Simrad multibeam vendor format
0495_20111013_171118_raw.all.mb56.gz 21.31MB Simrad multibeam vendor format
0496_20111013_181118_raw.all.mb56.gz 20.30MB Simrad multibeam vendor format
0497_20111013_191118_raw.all.mb56.gz 20.03MB Simrad multibeam vendor format
0498_20111013_201118_raw.all.mb56.gz 19.72MB Simrad multibeam vendor format
0499_20111013_211118_raw.all.mb56.gz 19.89MB Simrad multibeam vendor format
0500_20111013_221118_raw.all.mb56.gz 19.27MB Simrad multibeam vendor format
0501_20111013_231118_raw.all.mb56.gz 19.31MB Simrad multibeam vendor format
0502_20111014_001118_raw.all.mb56.gz 19.58MB Simrad multibeam vendor format
0503_20111014_011118_raw.all.mb56.gz 7.51MB Simrad multibeam vendor format
0504_20111014_030632_raw.all.mb56.gz 10.62MB Simrad multibeam vendor format
0505_20111014_040547_raw.all.mb56.gz 11.80MB Simrad multibeam vendor format
0506_20111014_044340_raw.all.mb56.gz 1.55MB Simrad multibeam vendor format
0507_20111014_045821_raw.all.mb56.gz 7.66MB Simrad multibeam vendor format
0508_20111014_061734_raw.all.mb56.gz 20.00MB Simrad multibeam vendor format
0509_20111014_071734_raw.all.mb56.gz 20.95MB Simrad multibeam vendor format
0510_20111014_081734_raw.all.mb56.gz 5.21MB Simrad multibeam vendor format
0511_20111014_083859_raw.all.mb56.gz 22.21MB Simrad multibeam vendor format
0512_20111014_093859_raw.all.mb56.gz 22.18MB Simrad multibeam vendor format
0513_20111014_103859_raw.all.mb56.gz 21.37MB Simrad multibeam vendor format
0514_20111014_113859_raw.all.mb56.gz 22.04MB Simrad multibeam vendor format
0515_20111014_123859_raw.all.mb56.gz 20.80MB Simrad multibeam vendor format
0516_20111014_133859_raw.all.mb56.gz 20.42MB Simrad multibeam vendor format
0517_20111014_143859_raw.all.mb56.gz 19.99MB Simrad multibeam vendor format
0518_20111014_153859_raw.all.mb56.gz 20.00MB Simrad multibeam vendor format
0519_20111014_163859_raw.all.mb56.gz 20.10MB Simrad multibeam vendor format
0520_20111014_173859_raw.all.mb56.gz 21.83MB Simrad multibeam vendor format
0521_20111014_183859_raw.all.mb56.gz 21.60MB Simrad multibeam vendor format
0522_20111014_193859_raw.all.mb56.gz 16.38MB Simrad multibeam vendor format
0523_20111014_203859_raw.all.mb56.gz 17.34MB Simrad multibeam vendor format
0524_20111014_213859_raw.all.mb56.gz 21.30MB Simrad multibeam vendor format
0525_20111014_223859_raw.all.mb56.gz 22.36MB Simrad multibeam vendor format
0526_20111014_233859_raw.all.mb56.gz 22.50MB Simrad multibeam vendor format
0527_20111015_003859_raw.all.mb56.gz 15.66MB Simrad multibeam vendor format
0528_20111015_024655_raw.all.mb56.gz 21.66MB Simrad multibeam vendor format
0529_20111015_034655_raw.all.mb56.gz 20.74MB Simrad multibeam vendor format
0530_20111015_044655_raw.all.mb56.gz 20.69MB Simrad multibeam vendor format
0531_20111015_054655_raw.all.mb56.gz 21.38MB Simrad multibeam vendor format
0532_20111015_064655_raw.all.mb56.gz 20.16MB Simrad multibeam vendor format
0533_20111015_080119_raw.all.mb56.gz 4.74MB Simrad multibeam vendor format
0534_20111015_090945_raw.all.mb56.gz 20.62MB Simrad multibeam vendor format
0535_20111015_100945_raw.all.mb56.gz 18.15MB Simrad multibeam vendor format
0536_20111015_110945_raw.all.mb56.gz 2.41MB Simrad multibeam vendor format
0537_20111016_003835_raw.all.mb56.gz 16.05MB Simrad multibeam vendor format
0538_20111016_013835_raw.all.mb56.gz 1.71MB Simrad multibeam vendor format
0539_20111016_020833_raw.all.mb56.gz 18.81MB Simrad multibeam vendor format
0540_20111016_030833_raw.all.mb56.gz 21.72MB Simrad multibeam vendor format
0541_20111016_040833_raw.all.mb56.gz 20.60MB Simrad multibeam vendor format
0542_20111016_050833_raw.all.mb56.gz 17.27MB Simrad multibeam vendor format
0543_20111016_063359_raw.all.mb56.gz 21.84MB Simrad multibeam vendor format
0544_20111016_073359_raw.all.mb56.gz 20.96MB Simrad multibeam vendor format
0545_20111016_083359_raw.all.mb56.gz 21.09MB Simrad multibeam vendor format
0546_20111016_093359_raw.all.mb56.gz 22.68MB Simrad multibeam vendor format
0547_20111016_103359_raw.all.mb56.gz 22.40MB Simrad multibeam vendor format
0548_20111016_113359_raw.all.mb56.gz 22.12MB Simrad multibeam vendor format
0549_20111016_123359_raw.all.mb56.gz 22.19MB Simrad multibeam vendor format
0550_20111016_133404_raw.all.mb56.gz 21.93MB Simrad multibeam vendor format
0551_20111016_143403_raw.all.mb56.gz 21.03MB Simrad multibeam vendor format
0552_20111016_153403_raw.all.mb56.gz 21.87MB Simrad multibeam vendor format
0553_20111016_163403_raw.all.mb56.gz 21.22MB Simrad multibeam vendor format
0554_20111016_173403_raw.all.mb56.gz 20.21MB Simrad multibeam vendor format
0555_20111016_183403_raw.all.mb56.gz 19.06MB Simrad multibeam vendor format
0556_20111016_193403_raw.all.mb56.gz 19.94MB Simrad multibeam vendor format
0557_20111016_203403_raw.all.mb56.gz 18.10MB Simrad multibeam vendor format
0558_20111016_213403_raw.all.mb56.gz 15.70MB Simrad multibeam vendor format
0559_20111016_223403_raw.all.mb56.gz 16.66MB Simrad multibeam vendor format
0560_20111016_233403_raw.all.mb56.gz 14.81MB Simrad multibeam vendor format
0561_20111017_003403_raw.all.mb56.gz 2.33MB Simrad multibeam vendor format
0562_20111017_020009_raw.all.mb56.gz 1.26MB Simrad multibeam vendor format
0563_20111017_030826_raw.all.mb56.gz 14.27MB Simrad multibeam vendor format
0564_20111017_040826_raw.all.mb56.gz 10.81MB Simrad multibeam vendor format
0565_20111017_050826_raw.all.mb56.gz 10.13MB Simrad multibeam vendor format
0566_20111017_060826_raw.all.mb56.gz 9.66MB Simrad multibeam vendor format
0567_20111017_070826_raw.all.mb56.gz 12.15MB Simrad multibeam vendor format
0568_20111017_080826_raw.all.mb56.gz 12.75MB Simrad multibeam vendor format
0569_20111017_090826_raw.all.mb56.gz 10.42MB Simrad multibeam vendor format
0570_20111017_100826_raw.all.mb56.gz 11.13MB Simrad multibeam vendor format
0571_20111017_110826_raw.all.mb56.gz 10.78MB Simrad multibeam vendor format
0572_20111017_120826_raw.all.mb56.gz 11.16MB Simrad multibeam vendor format
0573_20111017_130826_raw.all.mb56.gz 11.18MB Simrad multibeam vendor format
0574_20111017_140826_raw.all.mb56.gz 10.86MB Simrad multibeam vendor format
0575_20111017_150826_raw.all.mb56.gz 10.82MB Simrad multibeam vendor format
0576_20111017_160826_raw.all.mb56.gz 11.03MB Simrad multibeam vendor format
0577_20111017_170826_raw.all.mb56.gz 10.82MB Simrad multibeam vendor format
0578_20111017_180826_raw.all.mb56.gz 9.98MB Simrad multibeam vendor format
0579_20111017_190826_raw.all.mb56.gz 9.27MB Simrad multibeam vendor format
0580_20111017_200826_raw.all.mb56.gz 9.56MB Simrad multibeam vendor format
0581_20111017_210826_raw.all.mb56.gz 10.50MB Simrad multibeam vendor format
0582_20111017_220826_raw.all.mb56.gz 10.60MB Simrad multibeam vendor format
0583_20111017_230826_raw.all.mb56.gz 9.96MB Simrad multibeam vendor format
0584_20111018_000826_raw.all.mb56.gz 9.19MB Simrad multibeam vendor format
0585_20111018_010826_raw.all.mb56.gz 9.78MB Simrad multibeam vendor format
0586_20111018_020826_raw.all.mb56.gz 9.57MB Simrad multibeam vendor format
0587_20111018_030826_raw.all.mb56.gz 9.91MB Simrad multibeam vendor format
0588_20111018_040826_raw.all.mb56.gz 10.64MB Simrad multibeam vendor format
0589_20111018_050826_raw.all.mb56.gz 10.96MB Simrad multibeam vendor format
0590_20111018_060826_raw.all.mb56.gz 11.68MB Simrad multibeam vendor format
0591_20111018_070826_raw.all.mb56.gz 9.65MB Simrad multibeam vendor format
0592_20111018_080826_raw.all.mb56.gz 10.63MB Simrad multibeam vendor format
0593_20111018_090826_raw.all.mb56.gz 12.48MB Simrad multibeam vendor format
0594_20111018_100826_raw.all.mb56.gz 13.00MB Simrad multibeam vendor format
0595_20111018_110826_raw.all.mb56.gz 10.02MB Simrad multibeam vendor format
0596_20111018_120826_raw.all.mb56.gz 11.22MB Simrad multibeam vendor format
0597_20111018_130826_raw.all.mb56.gz 11.52MB Simrad multibeam vendor format
0598_20111018_140826_raw.all.mb56.gz 10.77MB Simrad multibeam vendor format
0599_20111018_150826_raw.all.mb56.gz 11.46MB Simrad multibeam vendor format
0600_20111018_160826_raw.all.mb56.gz 11.10MB Simrad multibeam vendor format
0601_20111018_170826_raw.all.mb56.gz 10.60MB Simrad multibeam vendor format
0602_20111018_180826_raw.all.mb56.gz 10.46MB Simrad multibeam vendor format
0603_20111018_190826_raw.all.mb56.gz 10.31MB Simrad multibeam vendor format
0604_20111018_200826_raw.all.mb56.gz 10.30MB Simrad multibeam vendor format
0605_20111018_210826_raw.all.mb56.gz 10.05MB Simrad multibeam vendor format
0606_20111018_220826_raw.all.mb56.gz 9.84MB Simrad multibeam vendor format
0607_20111018_230826_raw.all.mb56.gz 9.81MB Simrad multibeam vendor format
0608_20111019_000826_raw.all.mb56.gz 9.78MB Simrad multibeam vendor format
0609_20111019_010826_raw.all.mb56.gz 9.75MB Simrad multibeam vendor format
0610_20111019_020826_raw.all.mb56.gz 9.63MB Simrad multibeam vendor format
0611_20111019_030826_raw.all.mb56.gz 9.61MB Simrad multibeam vendor format
0612_20111019_040826_raw.all.mb56.gz 9.60MB Simrad multibeam vendor format
0613_20111019_050826_raw.all.mb56.gz 9.71MB Simrad multibeam vendor format
0614_20111019_060826_raw.all.mb56.gz 9.73MB Simrad multibeam vendor format
0615_20111019_070826_raw.all.mb56.gz 9.57MB Simrad multibeam vendor format
0616_20111019_080826_raw.all.mb56.gz 9.38MB Simrad multibeam vendor format
0617_20111019_090826_raw.all.mb56.gz 9.53MB Simrad multibeam vendor format
0618_20111019_100826_raw.all.mb56.gz 9.53MB Simrad multibeam vendor format
0619_20111019_110826_raw.all.mb56.gz 9.69MB Simrad multibeam vendor format
0620_20111019_120826_raw.all.mb56.gz 9.58MB Simrad multibeam vendor format
0621_20111019_130826_raw.all.mb56.gz 9.47MB Simrad multibeam vendor format
0622_20111019_140826_raw.all.mb56.gz 8.77MB Simrad multibeam vendor format
0623_20111019_150826_raw.all.mb56.gz 8.76MB Simrad multibeam vendor format
0624_20111019_160826_raw.all.mb56.gz 8.78MB Simrad multibeam vendor format
0625_20111019_170826_raw.all.mb56.gz 9.18MB Simrad multibeam vendor format
0626_20111019_180826_raw.all.mb56.gz 10.30MB Simrad multibeam vendor format
0627_20111019_190826_raw.all.mb56.gz 22.11MB Simrad multibeam vendor format
0628_20111019_200826_raw.all.mb56.gz 26.64MB Simrad multibeam vendor format
0629_20111019_210826_raw.all.mb56.gz 33.58MB Simrad multibeam vendor format
0630_20111019_220826_raw.all.mb56.gz 35.64MB Simrad multibeam vendor format
0631_20111019_230826_raw.all.mb56.gz 36.19MB Simrad multibeam vendor format
0632_20111020_000826_raw.all.mb56.gz 28.73MB Simrad multibeam vendor format
0633_20111020_010826_raw.all.mb56.gz 29.49MB Simrad multibeam vendor format
0634_20111020_020826_raw.all.mb56.gz 32.08MB Simrad multibeam vendor format
0635_20111020_030826_raw.all.mb56.gz 40.93MB Simrad multibeam vendor format
0636_20111020_040826_raw.all.mb56.gz 36.50MB Simrad multibeam vendor format
0637_20111020_050826_raw.all.mb56.gz 22.90MB Simrad multibeam vendor format
0638_20111020_060826_raw.all.mb56.gz 26.39MB Simrad multibeam vendor format
0639_20111020_070826_raw.all.mb56.gz 24.52MB Simrad multibeam vendor format
0640_20111020_080826_raw.all.mb56.gz 23.13MB Simrad multibeam vendor format
0641_20111020_090826_raw.all.mb56.gz 21.77MB Simrad multibeam vendor format
0642_20111020_100826_raw.all.mb56.gz 16.46MB Simrad multibeam vendor format
0643_20111020_110826_raw.all.mb56.gz 12.85MB Simrad multibeam vendor format
0644_20111020_120826_raw.all.mb56.gz 10.96MB Simrad multibeam vendor format
0645_20111020_130826_raw.all.mb56.gz 8.29MB Simrad multibeam vendor format
0646_20111020_140826_raw.all.mb56.gz 8.71MB Simrad multibeam vendor format
0647_20111020_150826_raw.all.mb56.gz 8.51MB Simrad multibeam vendor format
0648_20111020_160826_raw.all.mb56.gz 10.87MB Simrad multibeam vendor format
0649_20111020_170826_raw.all.mb56.gz 10.19MB Simrad multibeam vendor format
0650_20111020_180826_raw.all.mb56.gz 9.62MB Simrad multibeam vendor format
0651_20111020_190826_raw.all.mb56.gz 9.55MB Simrad multibeam vendor format
0652_20111020_200826_raw.all.mb56.gz 10.13MB Simrad multibeam vendor format
0653_20111020_210826_raw.all.mb56.gz 10.09MB Simrad multibeam vendor format
0654_20111020_220825_raw.all.mb56.gz 9.05MB Simrad multibeam vendor format
0655_20111020_230826_raw.all.mb56.gz 8.88MB Simrad multibeam vendor format
0656_20111021_000826_raw.all.mb56.gz 8.85MB Simrad multibeam vendor format
0657_20111021_010826_raw.all.mb56.gz 8.95MB Simrad multibeam vendor format
0658_20111021_020825_raw.all.mb56.gz 8.71MB Simrad multibeam vendor format
0659_20111021_030826_raw.all.mb56.gz 8.73MB Simrad multibeam vendor format
0660_20111021_040825_raw.all.mb56.gz 8.98MB Simrad multibeam vendor format
0661_20111021_050825_raw.all.mb56.gz 9.04MB Simrad multibeam vendor format
0662_20111021_060825_raw.all.mb56.gz 8.78MB Simrad multibeam vendor format
0663_20111021_070825_raw.all.mb56.gz 8.83MB Simrad multibeam vendor format
0664_20111021_080825_raw.all.mb56.gz 8.51MB Simrad multibeam vendor format
0665_20111021_090825_raw.all.mb56.gz 8.69MB Simrad multibeam vendor format
0666_20111021_100825_raw.all.mb56.gz 8.66MB Simrad multibeam vendor format
0667_20111021_110825_raw.all.mb56.gz 8.55MB Simrad multibeam vendor format
0668_20111021_120826_raw.all.mb56.gz 9.02MB Simrad multibeam vendor format
0669_20111021_130825_raw.all.mb56.gz 8.94MB Simrad multibeam vendor format
0670_20111021_140825_raw.all.mb56.gz 8.88MB Simrad multibeam vendor format
0671_20111021_150825_raw.all.mb56.gz 8.86MB Simrad multibeam vendor format
0672_20111021_160825_raw.all.mb56.gz 8.45MB Simrad multibeam vendor format
0673_20111021_170825_raw.all.mb56.gz 8.32MB Simrad multibeam vendor format
0674_20111021_180825_raw.all.mb56.gz 9.15MB Simrad multibeam vendor format
0675_20111021_190825_raw.all.mb56.gz 10.35MB Simrad multibeam vendor format
0676_20111021_200825_raw.all.mb56.gz 14.22MB Simrad multibeam vendor format
0677_20111021_210825_raw.all.mb56.gz 13.89MB Simrad multibeam vendor format
0678_20111021_220825_raw.all.mb56.gz 16.32MB Simrad multibeam vendor format
0679_20111021_230825_raw.all.mb56.gz 9.12MB Simrad multibeam vendor format
0680_20111022_000825_raw.all.mb56.gz 8.49MB Simrad multibeam vendor format
0681_20111022_010825_raw.all.mb56.gz 8.51MB Simrad multibeam vendor format
0682_20111022_020825_raw.all.mb56.gz 9.45MB Simrad multibeam vendor format
0683_20111022_030825_raw.all.mb56.gz 11.35MB Simrad multibeam vendor format
0684_20111022_040825_raw.all.mb56.gz 9.29MB Simrad multibeam vendor format
0685_20111022_050825_raw.all.mb56.gz 8.47MB Simrad multibeam vendor format
0686_20111022_060825_raw.all.mb56.gz 10.44MB Simrad multibeam vendor format
0687_20111022_070825_raw.all.mb56.gz 15.15MB Simrad multibeam vendor format
0688_20111022_080825_raw.all.mb56.gz 14.17MB Simrad multibeam vendor format
0689_20111022_090825_raw.all.mb56.gz 8.22MB Simrad multibeam vendor format
0690_20111022_100825_raw.all.mb56.gz 16.82MB Simrad multibeam vendor format
0691_20111022_110825_raw.all.mb56.gz 15.79MB Simrad multibeam vendor format
0692_20111022_120825_raw.all.mb56.gz 15.49MB Simrad multibeam vendor format
0693_20111022_130825_raw.all.mb56.gz 14.67MB Simrad multibeam vendor format
0694_20111022_140825_raw.all.mb56.gz 24.56MB Simrad multibeam vendor format
0695_20111022_150825_raw.all.mb56.gz 25.86MB Simrad multibeam vendor format
0696_20111022_160825_raw.all.mb56.gz 28.75MB Simrad multibeam vendor format
0697_20111022_170825_raw.all.mb56.gz 27.00MB Simrad multibeam vendor format
0698_20111022_180825_raw.all.mb56.gz 24.38MB Simrad multibeam vendor format
0699_20111022_190825_raw.all.mb56.gz 27.53MB Simrad multibeam vendor format
0700_20111022_200825_raw.all.mb56.gz 27.81MB Simrad multibeam vendor format
0701_20111022_210825_raw.all.mb56.gz 24.12MB Simrad multibeam vendor format
0702_20111022_220825_raw.all.mb56.gz 20.07MB Simrad multibeam vendor format
0703_20111022_230825_raw.all.mb56.gz 26.25MB Simrad multibeam vendor format
0704_20111023_000825_raw.all.mb56.gz 22.23MB Simrad multibeam vendor format
0705_20111023_010824_raw.all.mb56.gz 14.84MB Simrad multibeam vendor format
0706_20111023_020824_raw.all.mb56.gz 19.19MB Simrad multibeam vendor format
0707_20111023_030824_raw.all.mb56.gz 15.10MB Simrad multibeam vendor format
0708_20111023_040824_raw.all.mb56.gz 17.05MB Simrad multibeam vendor format
0709_20111023_050824_raw.all.mb56.gz 22.02MB Simrad multibeam vendor format
0710_20111023_060824_raw.all.mb56.gz 25.43MB Simrad multibeam vendor format
0711_20111023_070824_raw.all.mb56.gz 29.54MB Simrad multibeam vendor format
0712_20111023_080824_raw.all.mb56.gz 38.08MB Simrad multibeam vendor format
0713_20111023_090824_raw.all.mb56.gz 36.37MB Simrad multibeam vendor format
0714_20111023_100824_raw.all.mb56.gz 24.02MB Simrad multibeam vendor format
0715_20111023_110824_raw.all.mb56.gz 34.29MB Simrad multibeam vendor format
0716_20111023_120824_raw.all.mb56.gz 36.04MB Simrad multibeam vendor format
0717_20111023_130824_raw.all.mb56.gz 37.89MB Simrad multibeam vendor format
0718_20111023_140829_raw.all.mb56.gz 39.65MB Simrad multibeam vendor format
0719_20111023_150830_raw.all.mb56.gz 29.27MB Simrad multibeam vendor format
0720_20111023_160830_raw.all.mb56.gz 30.06MB Simrad multibeam vendor format
0721_20111023_170830_raw.all.mb56.gz 32.72MB Simrad multibeam vendor format
0722_20111023_180830_raw.all.mb56.gz 29.99MB Simrad multibeam vendor format
0723_20111023_190831_raw.all.mb56.gz 28.00MB Simrad multibeam vendor format
0724_20111023_200831_raw.all.mb56.gz 31.22MB Simrad multibeam vendor format
0725_20111023_210831_raw.all.mb56.gz 31.74MB Simrad multibeam vendor format
0726_20111023_220831_raw.all.mb56.gz 25.17MB Simrad multibeam vendor format
0727_20111023_230832_raw.all.mb56.gz 22.80MB Simrad multibeam vendor format
0728_20111024_000832_raw.all.mb56.gz 19.25MB Simrad multibeam vendor format
0729_20111024_010832_raw.all.mb56.gz 19.57MB Simrad multibeam vendor format
0730_20111024_020832_raw.all.mb56.gz 20.42MB Simrad multibeam vendor format
0731_20111024_030833_raw.all.mb56.gz 21.64MB Simrad multibeam vendor format
0732_20111024_040832_raw.all.mb56.gz 16.93MB Simrad multibeam vendor format
0733_20111024_050833_raw.all.mb56.gz 12.15MB Simrad multibeam vendor format
0734_20111024_060833_raw.all.mb56.gz 13.58MB Simrad multibeam vendor format
0735_20111024_070833_raw.all.mb56.gz 15.91MB Simrad multibeam vendor format
0736_20111024_080833_raw.all.mb56.gz 21.11MB Simrad multibeam vendor format
0737_20111024_090833_raw.all.mb56.gz 27.50MB Simrad multibeam vendor format
0738_20111024_100833_raw.all.mb56.gz 32.38MB Simrad multibeam vendor format
0739_20111024_110832_raw.all.mb56.gz 29.21MB Simrad multibeam vendor format
0740_20111024_120832_raw.all.mb56.gz 27.12MB Simrad multibeam vendor format
0741_20111024_130832_raw.all.mb56.gz 30.57MB Simrad multibeam vendor format
0742_20111024_140832_raw.all.mb56.gz 28.27MB Simrad multibeam vendor format
0743_20111024_150832_raw.all.mb56.gz 25.43MB Simrad multibeam vendor format
0744_20111024_160832_raw.all.mb56.gz 23.31MB Simrad multibeam vendor format
0745_20111024_170832_raw.all.mb56.gz 23.94MB Simrad multibeam vendor format
0746_20111024_180832_raw.all.mb56.gz 23.04MB Simrad multibeam vendor format
0747_20111024_190832_raw.all.mb56.gz 21.10MB Simrad multibeam vendor format
0748_20111024_200832_raw.all.mb56.gz 32.27MB Simrad multibeam vendor format
0749_20111024_210832_raw.all.mb56.gz 22.68MB Simrad multibeam vendor format
0750_20111024_220832_raw.all.mb56.gz 11.53MB Simrad multibeam vendor format
0751_20111024_230832_raw.all.mb56.gz 18.86MB Simrad multibeam vendor format
0752_20111025_000832_raw.all.mb56.gz 8.43MB Simrad multibeam vendor format
0753_20111025_010832_raw.all.mb56.gz 8.18MB Simrad multibeam vendor format
0754_20111025_020832_raw.all.mb56.gz 10.20MB Simrad multibeam vendor format
0755_20111025_030832_raw.all.mb56.gz 12.17MB Simrad multibeam vendor format
0756_20111025_040832_raw.all.mb56.gz 8.16MB Simrad multibeam vendor format
0757_20111025_050832_raw.all.mb56.gz 8.53MB Simrad multibeam vendor format
0758_20111025_060832_raw.all.mb56.gz 8.72MB Simrad multibeam vendor format
0759_20111025_070832_raw.all.mb56.gz 14.38MB Simrad multibeam vendor format
0760_20111025_080832_raw.all.mb56.gz 20.77MB Simrad multibeam vendor format
0761_20111025_090832_raw.all.mb56.gz 27.51MB Simrad multibeam vendor format
0762_20111025_100832_raw.all.mb56.gz 27.86MB Simrad multibeam vendor format
0763_20111025_110833_raw.all.mb56.gz 27.81MB Simrad multibeam vendor format
0764_20111025_120832_raw.all.mb56.gz 21.92MB Simrad multibeam vendor format
0765_20111025_130832_raw.all.mb56.gz 24.04MB Simrad multibeam vendor format
0766_20111025_140832_raw.all.mb56.gz 21.55MB Simrad multibeam vendor format
0767_20111025_150832_raw.all.mb56.gz 22.23MB Simrad multibeam vendor format
0768_20111025_160832_raw.all.mb56.gz 24.04MB Simrad multibeam vendor format
0769_20111025_170832_raw.all.mb56.gz 29.27MB Simrad multibeam vendor format
0770_20111025_180833_raw.all.mb56.gz 28.61MB Simrad multibeam vendor format
0771_20111025_190833_raw.all.mb56.gz 29.10MB Simrad multibeam vendor format
0772_20111025_200832_raw.all.mb56.gz 28.54MB Simrad multibeam vendor format
0773_20111025_210832_raw.all.mb56.gz 28.83MB Simrad multibeam vendor format
0774_20111025_220832_raw.all.mb56.gz 21.52MB Simrad multibeam vendor format
0775_20111025_230832_raw.all.mb56.gz 14.79MB Simrad multibeam vendor format
0776_20111026_000832_raw.all.mb56.gz 12.68MB Simrad multibeam vendor format
0777_20111026_010832_raw.all.mb56.gz 15.62MB Simrad multibeam vendor format
0778_20111026_020832_raw.all.mb56.gz 33.76MB Simrad multibeam vendor format
0779_20111026_030832_raw.all.mb56.gz 27.27MB Simrad multibeam vendor format
0780_20111026_040832_raw.all.mb56.gz 18.36MB Simrad multibeam vendor format
0781_20111026_050832_raw.all.mb56.gz 18.45MB Simrad multibeam vendor format
0782_20111026_060832_raw.all.mb56.gz 21.51MB Simrad multibeam vendor format
0783_20111026_070832_raw.all.mb56.gz 20.37MB Simrad multibeam vendor format
0784_20111026_080832_raw.all.mb56.gz 18.40MB Simrad multibeam vendor format
0785_20111026_090832_raw.all.mb56.gz 17.14MB Simrad multibeam vendor format
0786_20111026_100832_raw.all.mb56.gz 18.64MB Simrad multibeam vendor format
0787_20111026_110832_raw.all.mb56.gz 26.55MB Simrad multibeam vendor format
0788_20111026_120832_raw.all.mb56.gz 17.03MB Simrad multibeam vendor format
0789_20111026_152752_raw.all.mb56.gz 33.0KB Simrad multibeam vendor format
0790_20111026_222544_raw.all.mb56.gz 23.22MB Simrad multibeam vendor format
0791_20111026_232543_raw.all.mb56.gz 19.95MB Simrad multibeam vendor format
0792_20111027_002543_raw.all.mb56.gz 31.13MB Simrad multibeam vendor format
0793_20111027_012543_raw.all.mb56.gz 29.95MB Simrad multibeam vendor format
0794_20111027_022543_raw.all.mb56.gz 45.78MB Simrad multibeam vendor format
0795_20111027_032543_raw.all.mb56.gz 55.19MB Simrad multibeam vendor format
0796_20111027_042543_raw.all.mb56.gz 50.35MB Simrad multibeam vendor format
0797_20111027_052543_raw.all.mb56.gz 52.19MB Simrad multibeam vendor format
0798_20111027_062543_raw.all.mb56.gz 44.29MB Simrad multibeam vendor format
0799_20111027_072543_raw.all.mb56.gz 27.96MB Simrad multibeam vendor format
0800_20111027_082543_raw.all.mb56.gz 29.11MB Simrad multibeam vendor format
0801_20111027_092543_raw.all.mb56.gz 28.05MB Simrad multibeam vendor format
0802_20111027_102543_raw.all.mb56.gz 33.56MB Simrad multibeam vendor format
0803_20111027_112543_raw.all.mb56.gz 31.77MB Simrad multibeam vendor format
0804_20111027_122543_raw.all.mb56.gz 37.00MB Simrad multibeam vendor format
0805_20111027_132543_raw.all.mb56.gz 30.44MB Simrad multibeam vendor format
0806_20111027_142543_raw.all.mb56.gz 32.10MB Simrad multibeam vendor format
0807_20111027_152543_raw.all.mb56.gz 30.29MB Simrad multibeam vendor format
0808_20111027_162543_raw.all.mb56.gz 33.44MB Simrad multibeam vendor format
0809_20111027_172543_raw.all.mb56.gz 33.98MB Simrad multibeam vendor format
0810_20111027_182543_raw.all.mb56.gz 37.63MB Simrad multibeam vendor format
0811_20111027_192543_raw.all.mb56.gz 38.30MB Simrad multibeam vendor format
0812_20111027_202543_raw.all.mb56.gz 37.91MB Simrad multibeam vendor format
0813_20111027_212543_raw.all.mb56.gz 34.46MB Simrad multibeam vendor format
0814_20111027_222543_raw.all.mb56.gz 33.02MB Simrad multibeam vendor format
0815_20111027_232543_raw.all.mb56.gz 25.72MB Simrad multibeam vendor format
0816_20111028_002543_raw.all.mb56.gz 24.43MB Simrad multibeam vendor format
0817_20111028_012543_raw.all.mb56.gz 23.88MB Simrad multibeam vendor format
0818_20111028_022543_raw.all.mb56.gz 25.94MB Simrad multibeam vendor format
0819_20111028_032543_raw.all.mb56.gz 28.96MB Simrad multibeam vendor format
0820_20111028_042543_raw.all.mb56.gz 25.81MB Simrad multibeam vendor format
0821_20111028_052543_raw.all.mb56.gz 28.21MB Simrad multibeam vendor format
0822_20111028_062543_raw.all.mb56.gz 34.88MB Simrad multibeam vendor format
0823_20111028_072543_raw.all.mb56.gz 34.41MB Simrad multibeam vendor format
0824_20111028_082543_raw.all.mb56.gz 34.54MB Simrad multibeam vendor format
0825_20111028_092543_raw.all.mb56.gz 30.58MB Simrad multibeam vendor format
0826_20111028_102543_raw.all.mb56.gz 28.77MB Simrad multibeam vendor format
0827_20111028_112543_raw.all.mb56.gz 31.74MB Simrad multibeam vendor format
0828_20111028_122543_raw.all.mb56.gz 32.46MB Simrad multibeam vendor format
0829_20111028_132543_raw.all.mb56.gz 22.56MB Simrad multibeam vendor format
0830_20111028_142543_raw.all.mb56.gz 29.99MB Simrad multibeam vendor format
0831_20111028_152543_raw.all.mb56.gz 27.80MB Simrad multibeam vendor format
0832_20111028_162543_raw.all.mb56.gz 27.02MB Simrad multibeam vendor format
0833_20111028_172543_raw.all.mb56.gz 26.98MB Simrad multibeam vendor format
0834_20111028_182543_raw.all.mb56.gz 18.22MB Simrad multibeam vendor format
0835_20111028_192543_raw.all.mb56.gz 16.70MB Simrad multibeam vendor format
0836_20111028_202543_raw.all.mb56.gz 11.37MB Simrad multibeam vendor format
0837_20111028_212543_raw.all.mb56.gz 9.10MB Simrad multibeam vendor format
0838_20111028_222543_raw.all.mb56.gz 0.65MB Simrad multibeam vendor format
0839_20111030_205002_raw.all.mb56.gz 32.97MB Simrad multibeam vendor format
0840_20111030_215002_raw.all.mb56.gz 34.99MB Simrad multibeam vendor format
0841_20111030_225002_raw.all.mb56.gz 0.55MB Simrad multibeam vendor format
0842_20111030_225104_raw.all.mb56.gz 31.85MB Simrad multibeam vendor format
0843_20111030_235104_raw.all.mb56.gz 32.36MB Simrad multibeam vendor format
0844_20111031_005105_raw.all.mb56.gz 36.20MB Simrad multibeam vendor format
0845_20111031_015105_raw.all.mb56.gz 37.38MB Simrad multibeam vendor format
0846_20111031_025105_raw.all.mb56.gz 33.36MB Simrad multibeam vendor format
0847_20111031_035105_raw.all.mb56.gz 27.14MB Simrad multibeam vendor format
0848_20111031_045105_raw.all.mb56.gz 8.11MB Simrad multibeam vendor format
0849_20111031_052805_raw.all.mb56.gz 33.13MB Simrad multibeam vendor format
0850_20111031_062805_raw.all.mb56.gz 25.59MB Simrad multibeam vendor format
0851_20111031_072805_raw.all.mb56.gz 12.07MB Simrad multibeam vendor format
0852_20111031_085132_raw.all.mb56.gz 41.78MB Simrad multibeam vendor format
0853_20111031_095132_raw.all.mb56.gz 39.76MB Simrad multibeam vendor format
0854_20111031_105132_raw.all.mb56.gz 37.63MB Simrad multibeam vendor format
0855_20111031_115132_raw.all.mb56.gz 37.09MB Simrad multibeam vendor format
0856_20111031_125132_raw.all.mb56.gz 32.64MB Simrad multibeam vendor format
0857_20111031_135132_raw.all.mb56.gz 31.42MB Simrad multibeam vendor format
0858_20111031_145132_raw.all.mb56.gz 30.53MB Simrad multibeam vendor format
0859_20111031_155132_raw.all.mb56.gz 25.84MB Simrad multibeam vendor format
0860_20111031_165132_raw.all.mb56.gz 25.34MB Simrad multibeam vendor format
0861_20111031_175132_raw.all.mb56.gz 30.63MB Simrad multibeam vendor format
0862_20111031_185132_raw.all.mb56.gz 25.19MB Simrad multibeam vendor format
0863_20111031_195132_raw.all.mb56.gz 29.05MB Simrad multibeam vendor format
0864_20111031_205132_raw.all.mb56.gz 31.16MB Simrad multibeam vendor format
0865_20111031_215132_raw.all.mb56.gz 17.64MB Simrad multibeam vendor format
0866_20111031_233032_raw.all.mb56.gz 37.22MB Simrad multibeam vendor format
0867_20111101_003032_raw.all.mb56.gz 34.87MB Simrad multibeam vendor format
0868_20111101_013032_raw.all.mb56.gz 36.14MB Simrad multibeam vendor format
0869_20111101_023032_raw.all.mb56.gz 33.38MB Simrad multibeam vendor format
0870_20111101_033032_raw.all.mb56.gz 34.16MB Simrad multibeam vendor format
0871_20111101_043032_raw.all.mb56.gz 38.98MB Simrad multibeam vendor format
0872_20111101_053032_raw.all.mb56.gz 38.48MB Simrad multibeam vendor format
0873_20111101_063032_raw.all.mb56.gz 36.52MB Simrad multibeam vendor format
0874_20111101_073032_raw.all.mb56.gz 37.56MB Simrad multibeam vendor format
0875_20111101_083032_raw.all.mb56.gz 39.99MB Simrad multibeam vendor format
0876_20111101_093032_raw.all.mb56.gz 40.61MB Simrad multibeam vendor format
0877_20111101_103032_raw.all.mb56.gz 40.05MB Simrad multibeam vendor format
0878_20111101_113032_raw.all.mb56.gz 39.46MB Simrad multibeam vendor format
0879_20111101_123032_raw.all.mb56.gz 33.69MB Simrad multibeam vendor format
0880_20111101_133032_raw.all.mb56.gz 25.72MB Simrad multibeam vendor format
0881_20111101_143032_raw.all.mb56.gz 26.52MB Simrad multibeam vendor format
0882_20111101_153032_raw.all.mb56.gz 25.90MB Simrad multibeam vendor format
0883_20111101_163032_raw.all.mb56.gz 25.71MB Simrad multibeam vendor format
0884_20111101_173032_raw.all.mb56.gz 24.78MB Simrad multibeam vendor format
0885_20111101_183032_raw.all.mb56.gz 24.49MB Simrad multibeam vendor format
0886_20111101_193032_raw.all.mb56.gz 30.46MB Simrad multibeam vendor format
0887_20111101_203032_raw.all.mb56.gz 19.96MB Simrad multibeam vendor format
0888_20111101_213032_raw.all.mb56.gz 17.43MB Simrad multibeam vendor format
0889_20111101_223032_raw.all.mb56.gz 19.08MB Simrad multibeam vendor format
0890_20111101_233032_raw.all.mb56.gz 24.64MB Simrad multibeam vendor format
0891_20111102_003032_raw.all.mb56.gz 26.23MB Simrad multibeam vendor format
0892_20111102_013032_raw.all.mb56.gz 27.82MB Simrad multibeam vendor format
0893_20111102_023032_raw.all.mb56.gz 26.66MB Simrad multibeam vendor format
0894_20111102_033032_raw.all.mb56.gz 27.67MB Simrad multibeam vendor format
0895_20111102_043032_raw.all.mb56.gz 27.09MB Simrad multibeam vendor format
0896_20111102_053032_raw.all.mb56.gz 21.17MB Simrad multibeam vendor format
0897_20111102_063032_raw.all.mb56.gz 15.34MB Simrad multibeam vendor format
0898_20111102_073032_raw.all.mb56.gz 25.29MB Simrad multibeam vendor format
0899_20111102_083032_raw.all.mb56.gz 28.50MB Simrad multibeam vendor format
0900_20111102_093032_raw.all.mb56.gz 29.97MB Simrad multibeam vendor format
0901_20111102_103032_raw.all.mb56.gz 31.28MB Simrad multibeam vendor format
0902_20111102_113032_raw.all.mb56.gz 31.51MB Simrad multibeam vendor format
0903_20111102_123032_raw.all.mb56.gz 32.70MB Simrad multibeam vendor format
0904_20111102_133032_raw.all.mb56.gz 29.92MB Simrad multibeam vendor format
0905_20111102_143032_raw.all.mb56.gz 28.44MB Simrad multibeam vendor format
0906_20111102_153032_raw.all.mb56.gz 29.07MB Simrad multibeam vendor format
0907_20111102_163032_raw.all.mb56.gz 27.38MB Simrad multibeam vendor format
0908_20111102_173032_raw.all.mb56.gz 26.35MB Simrad multibeam vendor format
0909_20111102_183032_raw.all.mb56.gz 31.85MB Simrad multibeam vendor format
0910_20111102_193033_raw.all.mb56.gz 28.15MB Simrad multibeam vendor format
0911_20111102_203032_raw.all.mb56.gz 26.69MB Simrad multibeam vendor format
0912_20111102_213032_raw.all.mb56.gz 1.49MB Simrad multibeam vendor format

Metadata Files: 3

Files File Size Description
NBP1105_Multibeam.xml NGDC created ISO metadata
NBP1105.xml 14.1KB XML metadata file
mb_bag_info.tar.gz 25.0KB Additional cruise information